TIRANA current weather conditions

sailwx.info

Last reported at 2015-Jun-09 18:32 UTC.
Time now 2015-Aug-01 13:51 UTC

Location: N 41°20' E 019°47'.
View on Google Maps.

See reports from other nearby stations

  
Tides and Currents Weather Stations Pressure Air Temp Water Temp Dewpoint Dewpoint Depression Visibility Wind Speed Wind Dir Waves Ship Positions
date/time (UTC)wind fromknots sea level pressurealtimeterstation pressurevisibilityair tempwater tempwave heightnotes
2015-Aug-01 12:20 340 10 5.435.0
2015-Aug-01 11:50 330 11 36.0
2015-Aug-01 11:20 340 12 35.0
2015-Aug-01 10:50 330 10 35.0
2015-Aug-01 10:20 350 7 35.0
2015-Aug-01 09:50 330 4 34.0
2015-Aug-01 09:20 020 3 33.0
2015-Aug-01 08:50 360 4 33.0
2015-Aug-01 08:20 010 4 32.0
2015-Aug-01 07:50 32.0
2015-Aug-01 07:20 330 2 5.431.0
2015-Aug-01 06:50 5.429.0
2015-Aug-01 06:20 26.0
2015-Aug-01 05:50 25.0
2015-Aug-01 05:20 24.0
2015-Aug-01 04:50 100 2 23.0
2015-Aug-01 04:20 22.0
2015-Aug-01 03:50 22.0
2015-Aug-01 03:20 21.0
2015-Aug-01 02:50 22.0
2015-Aug-01 02:20 22.0
2015-Aug-01 01:50 150 3 23.0
2015-Aug-01 01:20 150 2 24.0
2015-Aug-01 00:50 170 3 23.0
2015-Aug-01 00:20 150 3 23.0
2015-Jul-31 23:50 170 4 24.0
2015-Jul-31 23:20 24.0
2015-Jul-31 22:50 140 2 24.0
2015-Jul-31 22:20 140 3 25.0
2015-Jul-31 21:50 140 2 24.0
2015-Jul-31 21:20 25.0
2015-Jul-31 20:50 25.0
2015-Jul-31 20:20 120 2 25.0
2015-Jul-31 19:50 26.0
2015-Jul-31 19:20 26.0
2015-Jul-31 18:50 300 4 27.0
2015-Jul-31 18:20 330 6 27.0
2015-Jul-31 17:50 340 7 28.0
2015-Jul-31 17:20 330 6 5.431.0
2015-Jul-31 16:50 330 6 5.432.0
2015-Jul-31 16:20 330 8 33.0
2015-Jul-31 15:50 340 8 35.0
2015-Jul-31 15:20 350 8 36.0
2015-Jul-31 14:50 350 8 35.0
2015-Jul-31 14:20 350 9 36.0
2015-Jul-31 13:50 340 10 36.0
2015-Jul-31 13:20 310 9 37.0
2015-Jul-31 12:50 310 7 5.437.0
2015-Jul-31 12:20 330 6 5.435.0
2015-Jul-31 11:50 300 6 5.436.0
2015-Jul-31 11:20 300 8 5.436.0
2015-Jul-31 10:50 340 5 37.0
2015-Jul-31 10:20 320 5 35.0
2015-Jul-31 09:50 350 3 34.0
2015-Jul-31 09:20 010 3 34.0
2015-Jul-31 08:50 010 3 34.0
2015-Jul-31 08:20 33.0
2015-Jul-31 07:50 33.0
2015-Jul-31 07:20 180 3 30.0
2015-Jul-31 06:50 160 5 29.0
2015-Jul-31 06:20 150 6 28.0
2015-Jul-31 05:50 130 5 27.0
2015-Jul-31 05:20 140 3 25.0
2015-Jul-31 04:50 120 5 23.0
2015-Jul-31 04:20 220 5 22.0
2015-Jul-31 03:50 230 6 22.0
2015-Jul-31 03:20 090 5 21.0
2015-Jul-31 02:50 21.0
2015-Jul-31 02:20 200 3 22.0
2015-Jul-31 01:50 21.0
2015-Jul-31 01:20 190 3 23.0
2015-Jul-31 00:50 170 2 22.0
2015-Jul-31 00:20 180 3 22.0
2015-Jul-30 23:50 170 3 22.0
2015-Jul-30 23:20 170 4 22.0
2015-Jul-30 22:50 140 3 23.0
2015-Jul-30 22:20 130 3 22.0
2015-Jul-30 21:50 170 3 23.0
2015-Jul-30 21:20 23.0
2015-Jul-30 20:50 170 2 23.0
2015-Jul-30 20:20 24.0
2015-Jul-30 19:50 300 2 25.0
2015-Jul-30 19:20 25.0
2015-Jul-30 18:50 060 2 25.0
2015-Jul-30 18:20 27.0
2015-Jul-30 17:50 300 3 29.0
2015-Jul-30 17:20 330 4 31.0
2015-Jul-30 16:50 330 6 32.0
2015-Jul-30 16:20 330 6 33.0
2015-Jul-30 15:50 340 8 33.0
2015-Jul-30 15:20 360 9 34.0
2015-Jul-30 14:50 360 12 34.0
2015-Jul-30 14:20 350 11 34.0
2015-Jul-30 13:50 350 12 35.0
2015-Jul-30 13:20 350 12 35.0